Year,Month,Day,Hour,Minute,Value (Times are PST for temperature in C)
2020,12,05,00,00,3.70
2020,12,05,00,01,3.60
2020,12,05,00,02,3.60
2020,12,05,00,03,3.50
2020,12,05,00,04,3.50
2020,12,05,00,05,3.50
2020,12,05,00,06,3.50
2020,12,05,00,07,3.50
2020,12,05,00,08,3.60
2020,12,05,00,09,3.60
2020,12,05,00,10,3.70
2020,12,05,00,11,3.80
2020,12,05,00,12,3.80
2020,12,05,00,13,3.90
2020,12,05,00,14,3.90
2020,12,05,00,15,3.80
2020,12,05,00,16,3.80
2020,12,05,00,17,3.60
2020,12,05,00,18,3.50
2020,12,05,00,19,3.40
2020,12,05,00,20,3.30
2020,12,05,00,21,3.20
2020,12,05,00,22,3.10
2020,12,05,00,23,3.10
2020,12,05,00,24,3.10
2020,12,05,00,25,2.90
2020,12,05,00,26,2.90
2020,12,05,00,27,2.90
2020,12,05,00,28,2.90
2020,12,05,00,29,2.90
2020,12,05,00,30,2.90
2020,12,05,00,31,2.90
2020,12,05,00,32,2.90
2020,12,05,00,33,2.90
2020,12,05,00,34,2.90
2020,12,05,00,35,2.80
2020,12,05,00,36,2.80
2020,12,05,00,37,2.80
2020,12,05,00,38,2.80
2020,12,05,00,39,2.70
2020,12,05,00,40,2.70
2020,12,05,00,41,2.70
2020,12,05,00,42,2.70
2020,12,05,00,43,2.70
2020,12,05,00,44,2.60
2020,12,05,00,45,2.60
2020,12,05,00,46,2.60
2020,12,05,00,47,2.60
2020,12,05,00,48,2.50
2020,12,05,00,49,2.50
2020,12,05,00,50,2.40
2020,12,05,00,51,2.40
2020,12,05,00,52,2.30
2020,12,05,00,53,2.30
2020,12,05,00,54,2.30
2020,12,05,00,55,2.30
2020,12,05,00,56,2.40
2020,12,05,00,57,2.40
2020,12,05,00,58,2.30
2020,12,05,00,59,2.30
2020,12,05,01,00,2.30
2020,12,05,01,01,2.30
2020,12,05,01,02,2.30
2020,12,05,01,03,2.20
2020,12,05,01,04,2.20
2020,12,05,01,05,2.20
2020,12,05,01,06,2.20
2020,12,05,01,07,2.10
2020,12,05,01,08,2.10
2020,12,05,01,09,2.20
2020,12,05,01,10,2.20
2020,12,05,01,11,2.20
2020,12,05,01,12,2.20
2020,12,05,01,13,2.20
2020,12,05,01,14,2.20
2020,12,05,01,15,2.30
2020,12,05,01,16,2.30
2020,12,05,01,17,2.30
2020,12,05,01,18,2.40
2020,12,05,01,19,2.40
2020,12,05,01,20,2.40
2020,12,05,01,21,2.40
2020,12,05,01,22,2.50
2020,12,05,01,23,2.50
2020,12,05,01,24,2.50
2020,12,05,01,25,2.50
2020,12,05,01,26,2.50
2020,12,05,01,27,2.50
2020,12,05,01,28,2.40
2020,12,05,01,29,2.40
2020,12,05,01,30,2.50
2020,12,05,01,31,2.50
2020,12,05,01,32,2.50
2020,12,05,01,33,2.60
2020,12,05,01,34,2.60
2020,12,05,01,35,2.70
2020,12,05,01,36,2.70
2020,12,05,01,37,2.70
2020,12,05,01,38,2.70
2020,12,05,01,39,2.70
2020,12,05,01,40,2.70
2020,12,05,01,41,2.80
2020,12,05,01,42,2.80
2020,12,05,01,43,2.80
2020,12,05,01,44,2.90
2020,12,05,01,45,3.00
2020,12,05,01,46,3.20
2020,12,05,01,47,3.30
2020,12,05,01,48,3.50
2020,12,05,01,49,3.60
2020,12,05,01,50,3.70
2020,12,05,01,51,3.90
2020,12,05,01,52,4.00
2020,12,05,01,53,4.00
2020,12,05,01,54,4.20
2020,12,05,01,55,4.20
2020,12,05,01,56,4.30
2020,12,05,01,57,4.40
2020,12,05,01,58,4.40
2020,12,05,01,59,4.50
2020,12,05,02,00,4.50
2020,12,05,02,01,4.60
2020,12,05,02,02,4.60
2020,12,05,02,03,4.60
2020,12,05,02,04,4.70
2020,12,05,02,05,4.80
2020,12,05,02,06,4.80
2020,12,05,02,07,4.90
2020,12,05,02,08,5.10
2020,12,05,02,09,5.10
2020,12,05,02,10,5.20
2020,12,05,02,11,5.20
2020,12,05,02,12,5.20
2020,12,05,02,13,5.20
2020,12,05,02,14,5.10
2020,12,05,02,15,5.10
2020,12,05,02,16,5.10
2020,12,05,02,17,5.00
2020,12,05,02,18,4.90
2020,12,05,02,19,4.90
2020,12,05,02,20,4.90
2020,12,05,02,21,4.90
2020,12,05,02,22,4.90
2020,12,05,02,23,4.90
2020,12,05,02,24,4.90
2020,12,05,02,25,4.80
2020,12,05,02,26,4.80
2020,12,05,02,27,4.80
2020,12,05,02,28,4.80
2020,12,05,02,29,4.80
2020,12,05,02,30,4.80
2020,12,05,02,31,4.80
2020,12,05,02,32,4.80
2020,12,05,02,33,4.80
2020,12,05,02,34,4.80
2020,12,05,02,35,4.70
2020,12,05,02,36,4.60
2020,12,05,02,37,4.60
2020,12,05,02,38,4.50
2020,12,05,02,39,4.40
2020,12,05,02,40,4.30
2020,12,05,02,41,4.20
2020,12,05,02,42,4.10
2020,12,05,02,43,4.00
2020,12,05,02,44,4.00
2020,12,05,02,45,3.90
2020,12,05,02,46,3.90
2020,12,05,02,47,3.80
2020,12,05,02,48,3.80
2020,12,05,02,49,3.90
2020,12,05,02,50,3.90
2020,12,05,02,51,4.00
2020,12,05,02,52,4.00
2020,12,05,02,53,4.10
2020,12,05,02,54,4.20
2020,12,05,02,55,4.30
2020,12,05,02,56,4.40
2020,12,05,02,57,4.60
2020,12,05,02,58,4.70
2020,12,05,02,59,4.70
2020,12,05,03,00,4.80
2020,12,05,03,01,4.80
2020,12,05,03,02,4.80
2020,12,05,03,03,4.90
2020,12,05,03,04,5.00
2020,12,05,03,05,5.10
2020,12,05,03,06,5.10
2020,12,05,03,07,5.10
2020,12,05,03,08,5.10
2020,12,05,03,09,5.20
2020,12,05,03,10,5.20
2020,12,05,03,11,5.30
2020,12,05,03,12,5.30
2020,12,05,03,13,5.40
2020,12,05,03,14,5.50
2020,12,05,03,15,5.60
2020,12,05,03,16,5.70
2020,12,05,03,17,5.70
2020,12,05,03,18,5.50
2020,12,05,03,19,5.40
2020,12,05,03,20,5.30
2020,12,05,03,21,5.20
2020,12,05,03,22,5.10
2020,12,05,03,23,5.10
2020,12,05,03,24,5.10
2020,12,05,03,25,5.10
2020,12,05,03,26,5.20
2020,12,05,03,27,5.40
2020,12,05,03,28,5.60
2020,12,05,03,29,5.80
2020,12,05,03,30,5.90
2020,12,05,03,31,6.00
2020,12,05,03,32,6.10
2020,12,05,03,33,6.00
2020,12,05,03,34,5.90
2020,12,05,03,35,5.90
2020,12,05,03,36,6.00
2020,12,05,03,37,6.10
2020,12,05,03,38,6.10
2020,12,05,03,39,6.20
2020,12,05,03,40,6.20
2020,12,05,03,41,6.20
2020,12,05,03,42,6.30
2020,12,05,03,43,6.30
2020,12,05,03,44,6.30
2020,12,05,03,45,6.30
2020,12,05,03,46,6.30
2020,12,05,03,47,6.40
2020,12,05,03,48,6.30
2020,12,05,03,49,6.40
2020,12,05,03,50,6.40
2020,12,05,03,51,6.40
2020,12,05,03,52,6.40
2020,12,05,03,53,6.40
2020,12,05,03,54,6.40
2020,12,05,03,55,6.40
2020,12,05,03,56,6.40
2020,12,05,03,57,6.40
2020,12,05,03,58,6.40
2020,12,05,03,59,6.40
2020,12,05,04,00,6.40
2020,12,05,04,01,6.40
2020,12,05,04,02,6.50
2020,12,05,04,03,6.60
2020,12,05,04,04,6.60
2020,12,05,04,05,6.60
2020,12,05,04,06,6.60
2020,12,05,04,07,6.60
2020,12,05,04,08,6.60
2020,12,05,04,09,6.60
2020,12,05,04,10,6.50
2020,12,05,04,11,6.40
2020,12,05,04,12,6.30
2020,12,05,04,13,6.20
2020,12,05,04,14,6.10
2020,12,05,04,15,6.10
2020,12,05,04,16,6.20
2020,12,05,04,17,6.20
2020,12,05,04,18,6.30
2020,12,05,04,19,6.30
2020,12,05,04,20,6.30
2020,12,05,04,21,6.30
2020,12,05,04,22,6.30
2020,12,05,04,23,6.30
2020,12,05,04,24,6.30
2020,12,05,04,25,6.30
2020,12,05,04,26,6.30
2020,12,05,04,27,6.30
2020,12,05,04,28,6.30
2020,12,05,04,29,6.40
2020,12,05,04,30,6.40
2020,12,05,04,31,6.50
2020,12,05,04,32,6.60
2020,12,05,04,33,6.60
2020,12,05,04,34,6.60
2020,12,05,04,35,6.60
2020,12,05,04,36,6.60
2020,12,05,04,37,6.50
2020,12,05,04,38,6.40
2020,12,05,04,39,6.40
2020,12,05,04,40,6.40
2020,12,05,04,41,6.40
2020,12,05,04,42,6.40
2020,12,05,04,43,6.40
2020,12,05,04,44,6.40
2020,12,05,04,45,6.40
2020,12,05,04,46,6.40
2020,12,05,04,47,6.40
2020,12,05,04,48,6.30
2020,12,05,04,49,6.30
2020,12,05,04,50,6.30
2020,12,05,04,51,6.20
2020,12,05,04,52,6.20
2020,12,05,04,53,6.20
2020,12,05,04,54,6.30
2020,12,05,04,55,6.30
2020,12,05,04,56,6.30
2020,12,05,04,57,6.30
2020,12,05,04,58,6.20
2020,12,05,04,59,6.10
2020,12,05,05,00,5.90
2020,12,05,05,01,5.80
2020,12,05,05,02,5.60
2020,12,05,05,03,5.50
2020,12,05,05,04,5.30
2020,12,05,05,05,5.10
2020,12,05,05,06,5.00
2020,12,05,05,07,4.90
2020,12,05,05,08,4.70
2020,12,05,05,09,4.60
2020,12,05,05,10,4.50
2020,12,05,05,11,4.40
2020,12,05,05,12,4.20
2020,12,05,05,13,4.20
2020,12,05,05,14,4.10
2020,12,05,05,15,4.00
2020,12,05,05,16,4.00
2020,12,05,05,17,3.90
2020,12,05,05,18,3.80
2020,12,05,05,19,3.80
2020,12,05,05,20,3.80
2020,12,05,05,21,3.80
2020,12,05,05,22,3.80
2020,12,05,05,23,3.70
2020,12,05,05,24,3.70
2020,12,05,05,25,3.70
2020,12,05,05,26,3.60
2020,12,05,05,27,3.60
2020,12,05,05,28,3.60
2020,12,05,05,29,3.50
2020,12,05,05,30,3.50
2020,12,05,05,31,3.50
2020,12,05,05,32,3.50
2020,12,05,05,33,3.50
2020,12,05,05,34,3.50
2020,12,05,05,35,3.40
2020,12,05,05,36,3.40
2020,12,05,05,37,3.40
2020,12,05,05,38,3.40
2020,12,05,05,39,3.30
2020,12,05,05,40,3.30
2020,12,05,05,41,3.30
2020,12,05,05,42,3.20
2020,12,05,05,43,3.20
2020,12,05,05,44,3.20
2020,12,05,05,45,3.10
2020,12,05,05,46,3.10
2020,12,05,05,47,3.10
2020,12,05,05,48,3.10
2020,12,05,05,49,3.10
2020,12,05,05,50,3.10
2020,12,05,05,51,3.10
2020,12,05,05,52,3.10
2020,12,05,05,53,3.10
2020,12,05,05,54,3.00
2020,12,05,05,55,2.90
2020,12,05,05,56,2.90
2020,12,05,05,57,3.00
2020,12,05,05,58,3.10
2020,12,05,05,59,3.10
2020,12,05,06,00,3.10
2020,12,05,06,01,3.10
2020,12,05,06,02,3.10
2020,12,05,06,03,3.10
2020,12,05,06,04,3.10
2020,12,05,06,05,3.10
2020,12,05,06,06,3.10
2020,12,05,06,07,3.00
2020,12,05,06,08,2.90
2020,12,05,06,09,2.90
2020,12,05,06,10,3.00
2020,12,05,06,11,3.10
2020,12,05,06,12,3.30
2020,12,05,06,13,3.50
2020,12,05,06,14,3.70
2020,12,05,06,15,3.90
2020,12,05,06,16,4.10
2020,12,05,06,17,4.20
2020,12,05,06,18,4.40
2020,12,05,06,19,4.50
2020,12,05,06,20,4.50
2020,12,05,06,21,4.60
2020,12,05,06,22,4.70
2020,12,05,06,23,4.80
2020,12,05,06,24,4.80
2020,12,05,06,25,4.90
2020,12,05,06,26,4.90
2020,12,05,06,27,4.90
2020,12,05,06,28,5.00
2020,12,05,06,29,5.10
2020,12,05,06,30,5.10
2020,12,05,06,31,5.20
2020,12,05,06,32,5.20
2020,12,05,06,33,5.30
2020,12,05,06,34,5.30
2020,12,05,06,35,5.40
2020,12,05,06,36,5.40
2020,12,05,06,37,5.40
2020,12,05,06,38,5.40
2020,12,05,06,39,5.40
2020,12,05,06,40,5.30
2020,12,05,06,41,5.30
2020,12,05,06,42,5.30
2020,12,05,06,43,5.30
2020,12,05,06,44,5.30
2020,12,05,06,45,5.20
2020,12,05,06,46,5.20
2020,12,05,06,47,5.10
2020,12,05,06,48,4.90
2020,12,05,06,49,4.70
2020,12,05,06,50,4.50
2020,12,05,06,51,4.40
2020,12,05,06,52,4.30
2020,12,05,06,53,4.20
2020,12,05,06,54,4.10
2020,12,05,06,55,4.00
2020,12,05,06,56,4.00
2020,12,05,06,57,3.90
2020,12,05,06,58,3.90
2020,12,05,06,59,3.80
2020,12,05,07,00,3.80
2020,12,05,07,01,3.80
2020,12,05,07,02,3.70
2020,12,05,07,03,3.70
2020,12,05,07,04,3.60
2020,12,05,07,05,3.60
2020,12,05,07,06,3.60
2020,12,05,07,07,3.50
2020,12,05,07,08,3.50
2020,12,05,07,09,3.50
2020,12,05,07,10,3.40
2020,12,05,07,11,3.30
2020,12,05,07,12,3.30
2020,12,05,07,13,3.20
2020,12,05,07,14,3.10
2020,12,05,07,15,3.10
2020,12,05,07,16,3.10
2020,12,05,07,17,3.00
2020,12,05,07,18,2.90
2020,12,05,07,19,3.00
2020,12,05,07,20,3.10
2020,12,05,07,21,3.10
2020,12,05,07,22,3.20
2020,12,05,07,23,3.30
2020,12,05,07,24,3.30
2020,12,05,07,25,3.30
2020,12,05,07,26,3.30
2020,12,05,07,27,3.30
2020,12,05,07,28,3.30
2020,12,05,07,29,3.20
2020,12,05,07,30,3.10
2020,12,05,07,31,3.00
2020,12,05,07,32,2.90
2020,12,05,07,33,2.90
2020,12,05,07,34,2.80
2020,12,05,07,35,2.80
2020,12,05,07,36,2.70
2020,12,05,07,37,2.70
2020,12,05,07,38,2.60
2020,12,05,07,39,2.60
2020,12,05,07,40,2.60
2020,12,05,07,41,2.60
2020,12,05,07,42,2.60
2020,12,05,07,43,2.50
2020,12,05,07,44,2.50
2020,12,05,07,45,2.50
2020,12,05,07,46,2.50
2020,12,05,07,47,2.50
2020,12,05,07,48,2.50
2020,12,05,07,49,2.50
2020,12,05,07,50,2.40
2020,12,05,07,51,2.40
2020,12,05,07,52,2.40
2020,12,05,07,53,2.40
2020,12,05,07,54,2.30
2020,12,05,07,55,2.30
2020,12,05,07,56,2.30
2020,12,05,07,57,2.30
2020,12,05,07,58,2.20
2020,12,05,07,59,2.20
2020,12,05,08,00,2.20
2020,12,05,08,01,2.20
2020,12,05,08,02,2.20
2020,12,05,08,03,2.20
2020,12,05,08,04,2.20
2020,12,05,08,05,2.20
2020,12,05,08,06,2.10
2020,12,05,08,07,2.10
2020,12,05,08,08,2.10
2020,12,05,08,09,2.10
2020,12,05,08,10,2.00
2020,12,05,08,11,2.00
2020,12,05,08,12,2.00
2020,12,05,08,13,2.00
2020,12,05,08,14,1.90
2020,12,05,08,15,2.00
2020,12,05,08,16,2.10
2020,12,05,08,17,2.10
2020,12,05,08,18,2.20
2020,12,05,08,19,2.20
2020,12,05,08,20,2.20
2020,12,05,08,21,2.20
2020,12,05,08,22,2.20
2020,12,05,08,23,2.20
2020,12,05,08,24,2.20
2020,12,05,08,25,2.20
2020,12,05,08,26,2.10
2020,12,05,08,27,2.10
2020,12,05,08,28,2.00
2020,12,05,08,29,2.00
2020,12,05,08,30,2.00
2020,12,05,08,31,1.90
2020,12,05,08,32,1.90
2020,12,05,08,33,1.90
2020,12,05,08,34,1.90
2020,12,05,08,35,1.90
2020,12,05,08,36,2.00
2020,12,05,08,37,2.00
2020,12,05,08,38,2.10
2020,12,05,08,39,2.10
2020,12,05,08,40,2.20
2020,12,05,08,41,2.20
2020,12,05,08,42,2.20
2020,12,05,08,43,2.30
2020,12,05,08,44,2.30
2020,12,05,08,45,2.40
2020,12,05,08,46,2.40
2020,12,05,08,47,2.50
2020,12,05,08,48,2.50
2020,12,05,08,49,2.70
2020,12,05,08,50,2.80
2020,12,05,08,51,2.90
2020,12,05,08,52,3.10
2020,12,05,08,53,3.20
2020,12,05,08,54,3.30
2020,12,05,08,55,3.50
2020,12,05,08,56,3.50
2020,12,05,08,57,3.50
2020,12,05,08,58,3.50
2020,12,05,08,59,3.50
2020,12,05,09,00,3.50
2020,12,05,09,01,3.50
2020,12,05,09,02,3.50
2020,12,05,09,03,3.50
2020,12,05,09,04,3.50
2020,12,05,09,05,3.60
2020,12,05,09,06,3.60
2020,12,05,09,07,3.60
2020,12,05,09,08,3.80
2020,12,05,09,09,4.00
2020,12,05,09,10,4.30
2020,12,05,09,11,4.60
2020,12,05,09,12,4.90
2020,12,05,09,13,5.20
2020,12,05,09,14,5.40
2020,12,05,09,15,5.60
2020,12,05,09,16,5.80
2020,12,05,09,17,5.90
2020,12,05,09,18,6.00
2020,12,05,09,19,6.20
2020,12,05,09,20,6.20
2020,12,05,09,21,6.30
2020,12,05,09,22,6.40
2020,12,05,09,23,6.40
2020,12,05,09,24,6.50
2020,12,05,09,25,6.60
2020,12,05,09,26,6.60
2020,12,05,09,27,6.60
2020,12,05,09,28,6.70
2020,12,05,09,29,6.80
2020,12,05,09,30,6.80
2020,12,05,09,31,6.90
2020,12,05,09,32,7.00
2020,12,05,09,33,7.00
2020,12,05,09,34,7.10
2020,12,05,09,35,7.20
2020,12,05,09,36,7.20
2020,12,05,09,37,7.30
2020,12,05,09,38,7.30
2020,12,05,09,39,7.30
2020,12,05,09,40,7.40
2020,12,05,09,41,7.50
2020,12,05,09,42,7.50
2020,12,05,09,43,7.60
2020,12,05,09,44,7.60
2020,12,05,09,45,7.70
2020,12,05,09,46,7.80
2020,12,05,09,47,7.80
2020,12,05,09,48,7.80
2020,12,05,09,49,7.80
2020,12,05,09,50,7.90
2020,12,05,09,51,7.90
2020,12,05,09,52,8.00
2020,12,05,09,53,8.00
2020,12,05,09,54,8.10
2020,12,05,09,55,8.10
2020,12,05,09,56,8.20
2020,12,05,09,57,8.20
2020,12,05,09,58,8.20
2020,12,05,09,59,8.30
2020,12,05,10,00,8.30
2020,12,05,10,01,8.40
2020,12,05,10,02,8.40
2020,12,05,10,03,8.50
2020,12,05,10,04,8.50
2020,12,05,10,05,8.50
2020,12,05,10,06,8.60
2020,12,05,10,07,8.60
2020,12,05,10,08,8.70
2020,12,05,10,09,8.70
2020,12,05,10,10,8.70
2020,12,05,10,11,8.70
2020,12,05,10,12,8.70
2020,12,05,10,13,8.80
2020,12,05,10,14,8.80
2020,12,05,10,15,8.90
2020,12,05,10,16,8.90
2020,12,05,10,17,9.00
2020,12,05,10,18,9.00
2020,12,05,10,19,9.00
2020,12,05,10,20,9.10
2020,12,05,10,21,9.10
2020,12,05,10,22,9.10
2020,12,05,10,23,9.10
2020,12,05,10,24,9.10
2020,12,05,10,25,9.20
2020,12,05,10,26,9.20
2020,12,05,10,27,9.20
2020,12,05,10,28,9.20
2020,12,05,10,29,9.20
2020,12,05,10,30,9.20
2020,12,05,10,31,9.20
2020,12,05,10,32,9.20
2020,12,05,10,33,9.30
2020,12,05,10,34,9.30
2020,12,05,10,35,9.30
2020,12,05,10,36,9.30
2020,12,05,10,37,9.40
2020,12,05,10,38,9.40
2020,12,05,10,39,9.40
2020,12,05,10,40,9.40
2020,12,05,10,41,9.50
2020,12,05,10,42,9.50
2020,12,05,10,43,9.50
2020,12,05,10,44,9.60
2020,12,05,10,45,9.60
2020,12,05,10,46,9.60
2020,12,05,10,47,9.60
2020,12,05,10,48,9.60
2020,12,05,10,49,9.60
2020,12,05,10,50,9.60
2020,12,05,10,51,9.60
2020,12,05,10,52,9.60
2020,12,05,10,53,9.70
2020,12,05,10,54,9.70
2020,12,05,10,55,9.70
2020,12,05,10,56,9.70
2020,12,05,10,57,9.70
2020,12,05,10,58,9.80
2020,12,05,10,59,9.80
2020,12,05,11,00,9.80
2020,12,05,11,01,9.80
2020,12,05,11,02,9.90
2020,12,05,11,03,9.90
2020,12,05,11,04,9.90
2020,12,05,11,05,9.90
2020,12,05,11,06,9.90
2020,12,05,11,07,9.90
2020,12,05,11,08,9.90
2020,12,05,11,09,9.90
2020,12,05,11,10,9.90
2020,12,05,11,11,9.90
2020,12,05,11,12,9.90
2020,12,05,11,13,9.90
2020,12,05,11,14,9.90
2020,12,05,11,15,10.00
2020,12,05,11,16,10.10
2020,12,05,11,17,10.10
2020,12,05,11,18,10.10
2020,12,05,11,19,10.10
2020,12,05,11,20,10.10
2020,12,05,11,21,10.10
2020,12,05,11,22,10.10
2020,12,05,11,23,10.10
2020,12,05,11,24,10.20
2020,12,05,11,25,10.20
2020,12,05,11,26,10.20
2020,12,05,11,27,10.20
2020,12,05,11,28,10.30
2020,12,05,11,29,10.30
2020,12,05,11,30,10.30
2020,12,05,11,31,10.40
2020,12,05,11,32,10.40
2020,12,05,11,33,10.40
2020,12,05,11,34,10.40
2020,12,05,11,35,10.40
2020,12,05,11,36,10.40
2020,12,05,11,37,10.40
2020,12,05,11,38,10.40
2020,12,05,11,39,10.40
2020,12,05,11,40,10.40
2020,12,05,11,41,10.40
2020,12,05,11,42,10.40
2020,12,05,11,43,10.50
2020,12,05,11,44,10.60
2020,12,05,11,45,10.60
2020,12,05,11,46,10.60
2020,12,05,11,47,10.60
2020,12,05,11,48,10.60
2020,12,05,11,49,10.70
2020,12,05,11,50,10.70
2020,12,05,11,51,10.70
2020,12,05,11,52,10.80
2020,12,05,11,53,10.80
2020,12,05,11,54,10.80
2020,12,05,11,55,10.80
2020,12,05,11,56,10.80
2020,12,05,11,57,10.80
2020,12,05,11,58,10.70
2020,12,05,11,59,10.70
2020,12,05,12,00,10.60
2020,12,05,12,01,10.60
2020,12,05,12,02,10.60
2020,12,05,12,03,10.60
2020,12,05,12,04,10.60
2020,12,05,12,05,10.60
2020,12,05,12,06,10.60
2020,12,05,12,07,10.60
2020,12,05,12,08,10.60
2020,12,05,12,09,10.70
2020,12,05,12,10,10.70
2020,12,05,12,11,10.70
2020,12,05,12,12,10.70
2020,12,05,12,13,10.80
2020,12,05,12,14,10.80
2020,12,05,12,15,10.80
2020,12,05,12,16,10.80
2020,12,05,12,17,10.90
2020,12,05,12,18,10.90
2020,12,05,12,19,10.90
2020,12,05,12,20,10.90
2020,12,05,12,21,10.90
2020,12,05,12,22,10.90
2020,12,05,12,23,10.90
2020,12,05,12,24,10.90
2020,12,05,12,25,11.00
2020,12,05,12,26,11.10
2020,12,05,12,27,11.10
2020,12,05,12,28,11.10
2020,12,05,12,29,11.10
2020,12,05,12,30,11.10
2020,12,05,12,31,11.10
2020,12,05,12,32,11.10
2020,12,05,12,33,11.20
2020,12,05,12,34,11.20
2020,12,05,12,35,11.20
2020,12,05,12,36,11.20
2020,12,05,12,37,11.20
2020,12,05,12,38,11.20
2020,12,05,12,39,11.20
2020,12,05,12,40,11.20
2020,12,05,12,41,11.30
2020,12,05,12,42,11.30
2020,12,05,12,43,11.40
2020,12,05,12,44,11.40
2020,12,05,12,45,11.40
2020,12,05,12,46,11.40
2020,12,05,12,47,11.50
2020,12,05,12,48,11.50
2020,12,05,12,49,11.40
2020,12,05,12,50,11.40
2020,12,05,12,51,11.40
2020,12,05,12,52,11.40
2020,12,05,12,53,11.40
2020,12,05,12,54,11.40
2020,12,05,12,55,11.40
2020,12,05,12,56,11.30
2020,12,05,12,57,11.30
2020,12,05,12,58,11.40
2020,12,05,12,59,11.40
2020,12,05,13,00,11.40
2020,12,05,13,01,11.40
2020,12,05,13,02,11.40
2020,12,05,13,03,11.40
2020,12,05,13,04,11.30
2020,12,05,13,05,11.30
2020,12,05,13,06,11.30
2020,12,05,13,07,11.40
2020,12,05,13,08,11.40
2020,12,05,13,09,11.40
2020,12,05,13,10,11.40
2020,12,05,13,11,11.40
2020,12,05,13,12,11.40
2020,12,05,13,13,11.40
2020,12,05,13,14,11.40
2020,12,05,13,15,11.40
2020,12,05,13,16,11.40
2020,12,05,13,17,11.40
2020,12,05,13,18,11.40
2020,12,05,13,19,11.40
2020,12,05,13,20,11.40
2020,12,05,13,21,11.40
2020,12,05,13,22,11.50
2020,12,05,13,23,11.60
2020,12,05,13,24,11.60
2020,12,05,13,25,11.60
2020,12,05,13,26,11.60
2020,12,05,13,27,11.60
2020,12,05,13,28,11.60
2020,12,05,13,29,11.60
2020,12,05,13,30,11.60
2020,12,05,13,31,11.60
2020,12,05,13,32,11.60
2020,12,05,13,33,11.70
2020,12,05,13,34,11.70
2020,12,05,13,35,11.70
2020,12,05,13,36,11.60
2020,12,05,13,37,11.70
2020,12,05,13,38,11.70
2020,12,05,13,39,11.70
2020,12,05,13,40,11.80
2020,12,05,13,41,11.80
2020,12,05,13,42,11.80
2020,12,05,13,43,11.80
2020,12,05,13,44,11.80
2020,12,05,13,45,11.80
2020,12,05,13,46,11.80
2020,12,05,13,47,11.80
2020,12,05,13,48,11.80
2020,12,05,13,49,11.80
2020,12,05,13,50,11.80
2020,12,05,13,51,11.80
2020,12,05,13,52,11.80
2020,12,05,13,53,11.80
2020,12,05,13,54,11.70
2020,12,05,13,55,11.70
2020,12,05,13,56,11.70
2020,12,05,13,57,11.70
2020,12,05,13,58,11.70
2020,12,05,13,59,11.70
2020,12,05,14,00,11.70
2020,12,05,14,01,11.70
2020,12,05,14,02,11.70
2020,12,05,14,03,11.80
2020,12,05,14,04,11.80
2020,12,05,14,05,11.80
2020,12,05,14,06,11.80
2020,12,05,14,07,11.80
2020,12,05,14,08,11.80
2020,12,05,14,09,11.80
2020,12,05,14,10,11.80
2020,12,05,14,11,11.80
2020,12,05,14,12,11.80
2020,12,05,14,13,11.80
2020,12,05,14,14,11.90
2020,12,05,14,15,11.90
2020,12,05,14,16,11.80
2020,12,05,14,17,11.80
2020,12,05,14,18,11.80
2020,12,05,14,19,11.80
2020,12,05,14,20,11.80
2020,12,05,14,21,11.80
2020,12,05,14,22,11.80
2020,12,05,14,23,11.80
2020,12,05,14,24,11.80
2020,12,05,14,25,11.80
2020,12,05,14,26,11.80
2020,12,05,14,27,11.80
2020,12,05,14,28,11.80
2020,12,05,14,29,11.80
2020,12,05,14,30,11.80
2020,12,05,14,31,11.80
2020,12,05,14,32,11.70
2020,12,05,14,33,11.70
2020,12,05,14,34,11.70
2020,12,05,14,35,11.70
2020,12,05,14,36,11.60
2020,12,05,14,37,11.60
2020,12,05,14,38,11.60
2020,12,05,14,39,11.60
2020,12,05,14,40,11.60
2020,12,05,14,41,11.60
2020,12,05,14,42,11.60
2020,12,05,14,43,11.60
2020,12,05,14,44,11.60
2020,12,05,14,45,11.60
2020,12,05,14,46,11.60
2020,12,05,14,47,11.60
2020,12,05,14,48,11.60
2020,12,05,14,49,11.60
2020,12,05,14,50,11.60
2020,12,05,14,51,11.60
2020,12,05,14,52,11.60
2020,12,05,14,53,11.60
2020,12,05,14,54,11.60
2020,12,05,14,55,11.60
2020,12,05,14,56,11.60
2020,12,05,14,57,11.60
2020,12,05,14,58,11.60
2020,12,05,14,59,11.60
2020,12,05,15,00,11.60
2020,12,05,15,01,11.60
2020,12,05,15,02,11.60
2020,12,05,15,03,11.60
2020,12,05,15,04,11.60
2020,12,05,15,05,11.60
2020,12,05,15,06,11.60
2020,12,05,15,07,11.60
2020,12,05,15,08,11.60
2020,12,05,15,09,11.60
2020,12,05,15,10,11.60
2020,12,05,15,11,11.60
2020,12,05,15,12,11.60
2020,12,05,15,13,11.60
2020,12,05,15,14,11.60
2020,12,05,15,15,11.60
2020,12,05,15,16,11.60
2020,12,05,15,17,11.60
2020,12,05,15,18,11.60
2020,12,05,15,19,11.60
2020,12,05,15,20,11.40
2020,12,05,15,21,11.40
2020,12,05,15,22,11.40
2020,12,05,15,23,11.40
2020,12,05,15,24,11.40
2020,12,05,15,25,11.40
2020,12,05,15,26,11.40
2020,12,05,15,27,11.40
2020,12,05,15,28,11.40
2020,12,05,15,29,11.30
2020,12,05,15,30,11.30
2020,12,05,15,31,11.30
2020,12,05,15,32,11.30
2020,12,05,15,33,11.20
2020,12,05,15,34,11.20
2020,12,05,15,35,11.20
2020,12,05,15,36,11.20
2020,12,05,15,37,11.20
2020,12,05,15,38,11.10
2020,12,05,15,39,11.10
2020,12,05,15,40,11.10
2020,12,05,15,41,11.10
2020,12,05,15,42,11.10
2020,12,05,15,43,11.00
2020,12,05,15,44,10.90
2020,12,05,15,45,10.90
2020,12,05,15,46,10.90
2020,12,05,15,47,10.90
2020,12,05,15,48,10.90
2020,12,05,15,49,10.80
2020,12,05,15,50,10.80
2020,12,05,15,51,10.70
2020,12,05,15,52,10.60
2020,12,05,15,53,10.60
2020,12,05,15,54,10.60
2020,12,05,15,55,10.40
2020,12,05,15,56,10.40
2020,12,05,15,57,10.30
2020,12,05,15,58,10.30
2020,12,05,15,59,10.20
2020,12,05,16,00,10.10
2020,12,05,16,01,10.10
2020,12,05,16,02,9.90
2020,12,05,16,03,9.90
2020,12,05,16,04,9.80
2020,12,05,16,05,9.70
2020,12,05,16,06,9.60
2020,12,05,16,07,9.50
2020,12,05,16,08,9.40
2020,12,05,16,09,9.30
2020,12,05,16,10,9.20
2020,12,05,16,11,9.00
2020,12,05,16,12,8.90
2020,12,05,16,13,8.90
2020,12,05,16,14,8.80
2020,12,05,16,15,8.70
2020,12,05,16,16,8.60
2020,12,05,16,17,8.50
2020,12,05,16,18,8.50
2020,12,05,16,19,8.40
2020,12,05,16,20,8.30
2020,12,05,16,21,8.20
2020,12,05,16,22,8.20
2020,12,05,16,23,8.20
2020,12,05,16,24,8.10
2020,12,05,16,25,8.00
2020,12,05,16,26,8.00
2020,12,05,16,27,7.90
2020,12,05,16,28,7.90
2020,12,05,16,29,7.80
2020,12,05,16,30,7.80
2020,12,05,16,31,7.80
2020,12,05,16,32,7.70
2020,12,05,16,33,7.70
2020,12,05,16,34,7.60
2020,12,05,16,35,7.60
2020,12,05,16,36,7.50
2020,12,05,16,37,7.50
2020,12,05,16,38,7.40
2020,12,05,16,39,7.40
2020,12,05,16,40,7.30
2020,12,05,16,41,7.30
2020,12,05,16,42,7.30
2020,12,05,16,43,7.20
2020,12,05,16,44,7.10
2020,12,05,16,45,7.10
2020,12,05,16,46,7.00
2020,12,05,16,47,7.00
2020,12,05,16,48,7.00
2020,12,05,16,49,6.90
2020,12,05,16,50,6.90
2020,12,05,16,51,6.80
2020,12,05,16,52,6.80
2020,12,05,16,53,6.80
2020,12,05,16,54,6.80
2020,12,05,16,55,6.70
2020,12,05,16,56,6.70
2020,12,05,16,57,6.60
2020,12,05,16,58,6.60
2020,12,05,16,59,6.60
2020,12,05,17,00,6.60
2020,12,05,17,01,6.60
2020,12,05,17,02,6.50
2020,12,05,17,03,6.40
2020,12,05,17,04,6.40
2020,12,05,17,05,6.40
2020,12,05,17,06,6.40
2020,12,05,17,07,6.40
2020,12,05,17,08,6.30
2020,12,05,17,09,6.30
2020,12,05,17,10,6.30
2020,12,05,17,11,6.30
2020,12,05,17,12,6.20
2020,12,05,17,13,6.20
2020,12,05,17,14,6.20
2020,12,05,17,15,6.10
2020,12,05,17,16,6.00
2020,12,05,17,17,6.00
2020,12,05,17,18,6.00
2020,12,05,17,19,5.90
2020,12,05,17,20,5.90
2020,12,05,17,21,5.80
2020,12,05,17,22,5.80
2020,12,05,17,23,5.70
2020,12,05,17,24,5.70
2020,12,05,17,25,5.70
2020,12,05,17,26,5.70
2020,12,05,17,27,5.60
2020,12,05,17,28,5.60
2020,12,05,17,29,5.50
2020,12,05,17,30,5.50
2020,12,05,17,31,5.50
2020,12,05,17,32,5.50
2020,12,05,17,33,5.40
2020,12,05,17,34,5.40
2020,12,05,17,35,5.40
2020,12,05,17,36,5.40
2020,12,05,17,37,5.30
2020,12,05,17,38,5.30
2020,12,05,17,39,5.30
2020,12,05,17,40,5.30
2020,12,05,17,41,5.30
2020,12,05,17,42,5.30
2020,12,05,17,43,5.20
2020,12,05,17,44,5.20
2020,12,05,17,45,5.20
2020,12,05,17,46,5.20
2020,12,05,17,47,5.20
2020,12,05,17,48,5.20
2020,12,05,17,49,5.30
2020,12,05,17,50,5.40
2020,12,05,17,51,5.40
2020,12,05,17,52,5.40
2020,12,05,17,53,5.40